Regional Weather Roundup
Issued by NWS

Home | Current Version | Previous Version | Text Only | Print | Product List | Glossary On
Versions: 1 2 3 4 5 6 7 8 9 10 11 12 13 14 15 16 17 18 19 20 21 22 23 24 25 26 27 28 29 30 31 32 33 34 35 36 37 38 39 40 41 42 43 44 45 46 47 48 49 50
000
ASUS43 KLSX 020310
RWRMO

WEATHER SUMMARY FOR MISSOURI
NATIONAL WEATHER SERVICE SPRINGFIELD MO
1000 PM CDT TUE SEP 01 2015

NOTE: "FAIR" INDICATES FEW OR NO CLOUDS BELOW 12,000 FEET WITH NO
       SIGNIFICANT WEATHER AND/OR OBSTRUCTIONS TO VISIBILITY.
       CURRENT SKY AND/OR WEATHER CONDITIONS ARE NOT AVAILABLE FOR
       CHILLICOTHE AND FARMINGTON.

MOZ001>031-035>038-043-044-053-054-020400-
...NORTHERN AND WESTERN MISSOURI...

CITY           SKY/WX    TMP DP  RH WIND       PRES   REMARKS
KANSAS CTY INT CLEAR     73  66  78 S12       30.02R
KANSAS C DTWN  CLEAR     81  67  62 S7        30.01R
LEE`S SUMMIT   CLEAR     79  64  60 S7        30.04R
ST JOSEPH      CLEAR     77  67  71 S8        30.00R
CHILLICOTHE      N/A     75  70  84 CALM      30.04R
KIRKSVILLE     PTCLDY    74  69  85 S7        30.05R

$$
MOZ066>068-077>081-088>096-101>105-020400-
...SOUTHWEST MISSOURI...

CITY           SKY/WX    TMP DP  RH WIND       PRES   REMARKS
SPRINGFIELD    CLEAR     75  68  78 S6        30.09R
JOPLIN         CLEAR     76  65  68 SE6       30.06R

$$
MOZ032>034-039>042-045>050-055>058-069>072-020400-
...CENTRAL MISSOURI...

CITY           SKY/WX    TMP DP  RH WIND       PRES   REMARKS
COLUMBIA       CLEAR     75  69  81 SE6       30.07R
JEFFERSON CITY CLEAR     76  70  82 E5        30.06R
ROLLA          CLEAR     76  69  79 S7        30.08S
SEDALIA        CLEAR     75  68  78 S6        30.07R
WHITEMAN AFB   CLEAR     76  67  75 S5        30.04R
WARRENSBURG    CLEAR     73  66  78 SE5       30.04R
OSAGE BEACH    CLEAR     79  68  69 S3        30.08R

$$
MOZ051-052-059>065-020400-
...EAST CENTRAL MISSOURI...

CITY           SKY/WX    TMP DP  RH WIND       PRES   REMARKS
ST LOUIS INTL  CLEAR     84  69  60 S7        30.09R
SPIRIT OF STL  CLEAR     78  73  84 S5        30.07R
ST CHARLES     CLEAR     79  71  76 CALM      30.06R

$$
MOZ072>076-082>087-097>100-106>115-020400-
...SOUTH CENTRAL AND SOUTHEAST MISSOURI...

CITY           SKY/WX    TMP DP  RH WIND       PRES   REMARKS
CAPE GIRARDEAU CLEAR     73  70  90 CALM      30.09R
FARMINGTON     CLEAR     73  70  88 SE5       30.14R
POPLAR BLUFF   CLEAR     73  71  93 CALM      30.08R
WEST PLAINS    CLEAR     73  69  87 CALM      30.13R

$$



USA.gov is the U.S. government's official web portal to all federal, state and local government web resources and services.